Simultaneous Nadir Overpasses (SNOs) Predictions

Prediction of SNOs near US between AQUA and NPP Satellite Orbit:

Table of predicted SNOs near US for the next 10.0 days since TLE Epoch: 11/19/2022
Index Date (AQUA) Time (AQUA) AQUA Lat,Lon Date (NPP) Time (NPP) NPP Lat,Lon Distance(km) Time Diff (sec)
1 11/20/2022 21:23:11 49.51,-125.00 11/20/2022 21:15:01 49.09,-127.45 183.82 490
2 11/26/2022 07:57:00 42.14, -86.16 11/26/2022 07:54:48 42.64, -89.11 248.32 132
3 11/26/2022 09:33:41 49.90,-107.96 11/26/2022 09:34:00 50.60,-111.27 247.62 19
